Time,TemperatureF,DewpointF,PressureIn,WindDirection,WindDirectionDegrees,WindSpeedMPH,WindSpeedGustMPH,Humidity,HourlyPrecipIn,Conditions,Clouds,dailyrainin,SoftwareType,DateUTC
2013-06-30 00:02:00,87.0,52.0,-100.00,NNE,20,-999.0,6.0,30,-99.99,,,-99.99,,2013-06-30 07:02:00,
2013-06-30 00:12:00,87.0,52.0,-100.00,NNE,20,-999.0,6.0,30,-99.99,,,-99.99,,2013-06-30 07:12:00,
2013-06-30 01:02:00,87.0,52.0,-100.00,North,5,-999.0,6.0,30,-99.99,,,-99.99,,2013-06-30 08:02:00,
2013-06-30 01:11:00,87.0,52.0,-100.00,North,5,-999.0,6.0,30,-99.99,,,-99.99,,2013-06-30 08:11:00,
2013-06-30 01:22:00,85.0,52.0,-100.00,NNE,19,-999.0,6.0,32,-99.99,,,-99.99,,2013-06-30 08:22:00,
2013-06-30 01:33:00,85.0,52.0,-100.00,NNE,19,-999.0,6.0,32,-99.99,,,-99.99,,2013-06-30 08:33:00,
2013-06-30 01:42:00,85.0,52.0,-100.00,NNE,19,-999.0,6.0,32,-99.99,,,-99.99,,2013-06-30 08:42:00,
2013-06-30 01:53:00,86.0,52.0,-100.00,NE,53,-999.0,6.0,31,-99.99,,,-99.99,,2013-06-30 08:53:00,
2013-06-30 02:01:00,86.0,52.0,-100.00,NE,53,-999.0,6.0,31,-99.99,,,-99.99,,2013-06-30 09:01:00,
2013-06-30 02:11:00,86.0,52.0,-100.00,NE,53,-999.0,7.0,31,-99.99,,,-99.99,,2013-06-30 09:11:00,
2013-06-30 03:53:00,87.0,50.0,-100.00,North,-999,-999.0,0.0,28,-99.99,,,-99.99,,2013-06-30 10:53:00,
2013-06-30 04:02:00,87.0,50.0,-100.00,North,-999,-999.0,0.0,28,-99.99,,,-99.99,,2013-06-30 11:02:00,
2013-06-30 04:11:00,87.0,50.0,-100.00,North,-999,-999.0,6.0,28,-99.99,,,-99.99,,2013-06-30 11:11:00,
2013-06-30 04:33:00,88.0,50.0,-100.00,NNW,348,-999.0,6.0,27,-99.99,,,-99.99,,2013-06-30 11:33:00,
2013-06-30 04:43:00,88.0,50.0,-100.00,NNW,348,-999.0,0.0,27,-99.99,,,-99.99,,2013-06-30 11:43:00,
2013-06-30 11:22:00,97.0,63.0,-100.00,SSE,166,-999.0,7.0,33,-99.99,,,-99.99,,2013-06-30 18:22:00,
2013-06-30 11:34:00,97.0,63.0,-100.00,SSE,166,-999.0,7.0,33,-99.99,,,-99.99,,2013-06-30 18:34:00,
2013-06-30 11:43:00,97.0,63.0,-100.00,SSE,166,-999.0,180.0,33,-99.99,,,-99.99,,2013-06-30 18:43:00,
2013-06-30 11:53:00,99.0,64.0,-100.00,SSE,161,-999.0,180.0,32,-99.99,,,-99.99,,2013-06-30 18:53:00,
2013-06-30 12:01:00,99.0,64.0,-100.00,SSE,161,-999.0,180.0,32,-99.99,,,-99.99,,2013-06-30 19:01:00,
2013-06-30 12:33:00,98.0,63.0,-100.00,South,179,-999.0,7.0,32,-99.99,,,-99.99,,2013-06-30 19:33:00,
2013-06-30 12:43:00,98.0,63.0,-100.00,South,179,-999.0,8.0,32,-99.99,,,-99.99,,2013-06-30 19:43:00,
2013-06-30 12:53:00,95.0,63.0,-100.00,SE,142,-999.0,8.0,35,-99.99,,,-99.99,,2013-06-30 19:53:00,
2013-06-30 13:01:00,95.0,63.0,-100.00,SE,142,-999.0,8.0,35,-99.99,,,-99.99,,2013-06-30 20:01:00,
2013-06-30 13:11:00,95.0,63.0,-100.00,SE,142,-999.0,8.0,35,-99.99,,,-99.99,,2013-06-30 20:11:00,
2013-06-30 13:22:00,94.0,62.0,-100.00,SSE,151,-999.0,8.0,35,-99.99,,,-99.99,,2013-06-30 20:22:00,
2013-06-30 13:34:00,94.0,62.0,-100.00,SSE,151,-999.0,8.0,35,-99.99,,,-99.99,,2013-06-30 20:34:00,
2013-06-30 13:42:00,94.0,62.0,-100.00,SSE,151,-999.0,8.0,35,-99.99,,,-99.99,,2013-06-30 20:42:00,
2013-06-30 13:52:00,94.0,63.0,-100.00,SSE,161,-999.0,8.0,36,-99.99,,,-99.99,,2013-06-30 20:52:00,
2013-06-30 14:01:00,94.0,63.0,-100.00,SSE,161,-999.0,8.0,36,-99.99,,,-99.99,,2013-06-30 21:01:00,
2013-06-30 14:11:00,94.0,63.0,-100.00,SSE,161,-999.0,8.0,36,-99.99,,,-99.99,,2013-06-30 21:11:00,
2013-06-30 14:34:00,94.0,67.0,-100.00,South,172,-999.0,8.0,41,-99.99,,,-99.99,,2013-06-30 21:34:00,
2013-06-30 14:42:00,94.0,67.0,-100.00,South,172,-999.0,-999.0,41,-99.99,,,-99.99,,2013-06-30 21:42:00,
2013-06-30 14:53:00,88.0,64.0,-100.00,SE,136,-999.0,8.0,45,-99.99,,,-99.99,,2013-06-30 21:53:00,
2013-06-30 15:01:00,88.0,64.0,-100.00,SE,136,-999.0,8.0,45,-99.99,,,-99.99,,2013-06-30 22:01:00,
2013-06-30 15:11:00,88.0,64.0,-100.00,SE,136,-999.0,7.0,45,-99.99,,,-99.99,,2013-06-30 22:11:00,
2013-06-30 15:34:00,87.0,65.0,-100.00,SE,129,-999.0,7.0,49,-99.99,,,-99.99,,2013-06-30 22:34:00,
2013-06-30 15:43:00,87.0,65.0,-100.00,SE,129,-999.0,6.0,49,-99.99,,,-99.99,,2013-06-30 22:43:00,
2013-06-30 16:53:00,90.0,68.0,-100.00,SSE,159,-999.0,8.0,49,-99.99,,,-99.99,,2013-06-30 23:53:00,
2013-06-30 17:01:00,90.0,68.0,-100.00,SSE,159,-999.0,8.0,49,-99.99,,,-99.99,,2013-07-01 00:01:00,
2013-06-30 17:11:00,90.0,68.0,-100.00,SSE,159,-999.0,7.0,49,-99.99,,,-99.99,,2013-07-01 00:11:00,
2013-06-30 17:22:00,90.0,68.0,-100.00,SSE,159,-999.0,7.0,49,-99.99,,,-99.99,,2013-07-01 00:22:00,
2013-06-30 17:52:00,90.0,69.0,-100.00,South,182,-999.0,7.0,50,-99.99,,,-99.99,,2013-07-01 00:52:00,
2013-06-30 18:01:00,90.0,69.0,-100.00,South,182,-999.0,7.0,50,-99.99,,,-99.99,,2013-07-01 01:01:00,
2013-06-30 18:11:00,90.0,69.0,-100.00,South,182,-999.0,2.0,50,-99.99,,,-99.99,,2013-07-01 01:11:00,
2013-06-30 18:22:00,92.0,69.0,-100.00,SSW,198,-999.0,2.0,47,-99.99,,,-99.99,,2013-07-01 01:22:00,
2013-06-30 18:33:00,92.0,69.0,-100.00,SSW,198,-999.0,2.0,47,-99.99,,,-99.99,,2013-07-01 01:33:00,
2013-06-30 18:42:00,92.0,69.0,-100.00,SSW,198,-999.0,0.0,47,-99.99,,,-99.99,,2013-07-01 01:42:00,
2013-06-30 18:52:00,90.0,67.0,-100.00,South,177,-999.0,0.0,47,-99.99,,,-99.99,,2013-07-01 01:52:00,
2013-06-30 19:02:00,90.0,67.0,-100.00,South,177,-999.0,0.0,47,-99.99,,,-99.99,,2013-07-01 02:02:00,
2013-06-30 19:11:00,90.0,67.0,-100.00,South,177,-999.0,1.0,47,-99.99,,,-99.99,,2013-07-01 02:11:00,
2013-06-30 19:22:00,83.0,68.0,-100.00,SSE,165,-999.0,1.0,61,-99.99,,,-99.99,,2013-07-01 02:22:00,
2013-06-30 19:33:00,83.0,68.0,-100.00,SSE,165,-999.0,1.0,61,-99.99,,,-99.99,,2013-07-01 02:33:00,
2013-06-30 19:43:00,83.0,68.0,-100.00,SSE,165,-999.0,-999.0,61,-99.99,,,-99.99,,2013-07-01 02:43:00,
2013-06-30 19:53:00,78.0,68.0,-100.00,South,179,-999.0,0.0,72,-99.99,,,-99.99,,2013-07-01 02:53:00,
2013-06-30 20:01:00,78.0,68.0,-100.00,South,179,-999.0,0.0,72,-99.99,,,-99.99,,2013-07-01 03:01:00,
2013-06-30 20:11:00,78.0,68.0,-100.00,South,179,-999.0,0.0,72,-99.99,,,-99.99,,2013-07-01 03:11:00,
2013-06-30 20:23:00,76.0,67.0,-100.00,South,179,-999.0,0.0,74,-99.99,,,-99.99,,2013-07-01 03:23:00,
2013-06-30 20:33:00,76.0,67.0,-100.00,South,179,-999.0,0.0,74,-99.99,,,-99.99,,2013-07-01 03:33:00,
2013-06-30 20:43:00,76.0,67.0,-100.00,South,179,-999.0,-999.0,74,-99.99,,,-99.99,,2013-07-01 03:43:00,
2013-06-30 20:52:00,76.0,65.0,-100.00,South,170,-999.0,0.0,69,-99.99,,,-99.99,,2013-07-01 03:52:00,
2013-06-30 21:01:00,76.0,65.0,-100.00,South,170,-999.0,0.0,69,-99.99,,,-99.99,,2013-07-01 04:01:00,
2013-06-30 21:11:00,76.0,65.0,-100.00,South,170,-999.0,0.0,69,-99.99,,,-99.99,,2013-07-01 04:11:00,
2013-06-30 21:22:00,75.0,63.0,-100.00,ENE,72,-999.0,0.0,67,-99.99,,,-99.99,,2013-07-01 04:22:00,
2013-06-30 21:32:00,75.0,63.0,-100.00,ENE,72,-999.0,0.0,67,-99.99,,,-99.99,,2013-07-01 04:32:00,
2013-06-30 21:42:00,75.0,63.0,-100.00,ENE,72,-999.0,-999.0,67,-99.99,,,-99.99,,2013-07-01 04:42:00,
2013-06-30 21:52:00,73.0,63.0,-100.00,ENE,72,-999.0,0.0,72,-99.99,,,-99.99,,2013-07-01 04:52:00,
2013-06-30 22:01:00,73.0,63.0,-100.00,ENE,72,-999.0,0.0,72,-99.99,,,-99.99,,2013-07-01 05:01:00,
2013-06-30 22:11:00,73.0,63.0,-100.00,ENE,72,-999.0,0.0,72,-99.99,,,-99.99,,2013-07-01 05:11:00,
2013-06-30 22:22:00,73.0,65.0,-100.00,ENE,71,-999.0,0.0,75,-99.99,,,-99.99,,2013-07-01 05:22:00,
2013-06-30 22:33:00,73.0,65.0,-100.00,ENE,71,-999.0,0.0,75,-99.99,,,-99.99,,2013-07-01 05:33:00,
2013-06-30 22:42:00,73.0,65.0,-100.00,ENE,71,-999.0,0.0,75,-99.99,,,-99.99,,2013-07-01 05:42:00,
2013-06-30 22:52:00,74.0,65.0,-100.00,ENE,64,-999.0,0.0,74,-99.99,,,-99.99,,2013-07-01 05:52:00,
2013-06-30 23:02:00,74.0,65.0,-100.00,ENE,64,-999.0,0.0,74,-99.99,,,-99.99,,2013-07-01 06:02:00,
2013-06-30 23:12:00,74.0,65.0,-100.00,ENE,64,-999.0,0.0,74,-99.99,,,-99.99,,2013-07-01 06:12:00,
2013-06-30 23:24:00,73.0,64.0,-100.00,ENE,64,-999.0,0.0,73,-99.99,,,-99.99,,2013-07-01 06:24:00,
2013-06-30 23:33:00,73.0,64.0,-100.00,ENE,64,-999.0,0.0,73,-99.99,,,-99.99,,2013-07-01 06:33:00,
2013-06-30 23:43:00,73.0,64.0,-100.00,ENE,64,-999.0,-999.0,73,-99.99,,,-99.99,,2013-07-01 06:43:00,
2013-06-30 23:53:00,72.0,64.0,-100.00,ENE,64,-999.0,-999.0,75,-99.99,,,-99.99,,2013-07-01 06:53:00,